Longview, TX

4:51 AM CDT on May 23, 2017 (GMT -0500)
Gregg County

Weather History for KGGG - June, 2012

Change the Weather History Date:

Saturday, June 16, 2012

  Actual Average Record
Temperature  
Mean Temperature 80 °F 80 °F  
Max Temperature 86 °F 90 °F 102 °F (1936)
Min Temperature 73 °F 70 °F 59 °F (1917)
Degree Days  
Heating Degree Days 0 0  
Month to date heating degree days 0 0  
Since 1 June heating degree days 0 0  
Since 1 July heating degree days 1665 2258  
Cooling Degree Days 15 15  
Month to date cooling degree days 252 213  
Year to date cooling degree days 903 592  
Since 1 June cooling degree days 252 213  
Growing Degree Days 30 (Base 50)    
Moisture  
Dew Point 72 °F    
Average Humidity 78    
Maximum Humidity 94    
Minimum Humidity 61    
Precipitation  
Precipitation 0.33 in 0.18 in 2.22 in (1987)
Month to date precipitation 1.33 2.62  
Year to date precipitation 19.34 22.35  
Snow  
Snow 0.00 in - - ()
Month to date snowfall 0.0  
Since 1 June snowfall 0.0  
Since 1 July snowfall 0.0  
Snow Depth 0.00 in    
Sea Level Pressure  
Sea Level Pressure 30.05 in    
Wind  
Wind Speed 4 mph (SSE)    
Max Wind Speed 14 mph    
Max Gust Speed 18 mph    
Visibility 8 miles    
Events Rain , Thunderstorm    
T = Trace of Precipitation, MM = Missing Value Source: NWS Daily Summary

Daily Weather History Graph

Daily Weather History Graph

Search for Another Location

Airport or City:

Trip Planner

Search our weather history database for the weather conditions in past years. The results will help you decide how hot, cold, wet, or windy it might be!

Date:

Astronomy

Jun. 16, 2012 Rise Set
Actual Time 6:11 AM CDT 8:27 PM CDT
Civil Twilight 5:43 AM CDT 8:56 PM CDT
Nautical Twilight 5:08 AM CDT 9:31 PM CDT
Astronomical Twilight 4:30 AM CDT 10:08 PM CDT
Moon 3:56 AM CDT (6/16) 6:07 PM CDT (6/16)
Length of Visible Light 15h 13m
Length of Day
14h 16m
Waning Crescent, 8% of the Moon is Illuminated
Jun 16
Waning Crescent
Jun 19
New
Jun 26
First Quarter
Jul 3
Full
Jul 10
Last Quarter

Hourly Weather History & Observations

Time (CDT) Temp. Heat Index Dew Point Humidity Pressure Visibility Wind Dir Wind Speed Gust Speed Precip Events Conditions
12:53 AM 77.0 °F - 71.1 °F 82% 30.03 in 10.0 mi North 6.9 mph - 0.00 in Rain Light Rain
1:53 AM 73.9 °F - 72.0 °F 93% 30.03 in 5.0 mi Calm Calm - 0.04 in Rain Light Rain
2:32 AM 73.4 °F - 71.6 °F 94% 30.06 in 3.0 mi West 3.5 mph - 0.08 in Rain , Thunderstorm Thunderstorms and Rain
2:39 AM 73.4 °F - 71.6 °F 94% 30.06 in 3.0 mi West 4.6 mph - 0.10 in Rain , Thunderstorm Thunderstorms and Rain
2:53 AM 73.9 °F - 72.0 °F 93% 30.04 in 4.0 mi WSW 3.5 mph - 0.12 in Rain Light Rain
3:32 AM 73.4 °F - 71.6 °F 94% 30.03 in 5.0 mi WSW 3.5 mph - 0.05 in Rain Light Rain
3:53 AM 73.9 °F - 72.0 °F 93% 30.01 in 5.0 mi SW 4.6 mph - 0.09 in Rain Light Rain
4:53 AM 73.4 °F - 71.6 °F 94% 30.04 in 5.0 mi South 5.8 mph - N/A Rain Light Rain
5:30 AM 73.4 °F - 73.4 °F 100% 30.05 in 8.0 mi Calm Calm - 0.01 in Rain Light Rain
5:53 AM 73.9 °F - 72.0 °F 93% 30.02 in 6.0 mi Calm Calm - 0.02 in Rain Light Rain
6:53 AM 73.9 °F - 72.0 °F 93% 30.00 in 7.0 mi SE 9.2 mph - 0.00 in   Clear
7:49 AM 75.2 °F - 73.4 °F 94% 30.05 in 8.0 mi Variable 3.5 mph - N/A   Mostly Cloudy
7:53 AM 75.9 °F - 73.0 °F 91% 30.04 in 8.0 mi South 3.5 mph - N/A   Mostly Cloudy
8:53 AM 77.0 °F - 73.9 °F 90% 30.06 in 8.0 mi SSW 3.5 mph - N/A   Overcast
9:48 AM 78.8 °F - 73.4 °F 83% 30.09 in 7.0 mi Variable 3.5 mph - N/A   Mostly Cloudy
9:50 AM 78.8 °F - 73.4 °F 83% 30.09 in 7.0 mi SE 4.6 mph - N/A   Mostly Cloudy
9:53 AM 79.0 °F - 73.9 °F 84% 30.07 in 8.0 mi SE 4.6 mph - N/A   Mostly Cloudy
10:15 AM 80.6 °F 85.4 °F 73.4 °F 79% 30.10 in 8.0 mi Calm Calm - N/A   Mostly Cloudy
10:43 AM 80.6 °F 85.4 °F 73.4 °F 79% 30.10 in 10.0 mi Calm Calm - N/A   Overcast
10:53 AM 81.0 °F 85.2 °F 72.0 °F 74% 30.08 in 10.0 mi Calm Calm - N/A   Overcast
11:07 AM 80.6 °F 85.4 °F 73.4 °F 79% 30.10 in 10.0 mi West 6.9 mph - N/A   Overcast
11:17 AM 80.6 °F 84.6 °F 71.6 °F 74% 30.11 in 10.0 mi Calm Calm - N/A   Overcast
11:53 AM 81.0 °F 85.2 °F 72.0 °F 74% 30.06 in 10.0 mi South 4.6 mph - N/A   Overcast
12:53 PM 82.0 °F 87.4 °F 73.0 °F 74% 30.07 in 10.0 mi Variable 3.5 mph - N/A   Clear
1:51 PM 86.0 °F 91.8 °F 71.6 °F 62% 30.08 in 10.0 mi East 11.5 mph - N/A Thunderstorm Thunderstorm
1:53 PM 84.9 °F 92.1 °F 73.9 °F 69% 30.06 in 10.0 mi East 12.7 mph 17.3 mph N/A Thunderstorm Thunderstorm
2:20 PM 77.0 °F - 68.0 °F 74% 30.09 in 10.0 mi South 10.4 mph - N/A Thunderstorm Thunderstorm
2:29 PM 77.0 °F - 68.0 °F 74% 30.09 in 10.0 mi South 8.1 mph - N/A   Mostly Cloudy
2:46 PM 78.8 °F - 71.6 °F 78% 30.09 in 10.0 mi ESE 8.1 mph - N/A   Mostly Cloudy
2:53 PM 79.0 °F - 72.0 °F 79% 30.07 in 10.0 mi ESE 5.8 mph - N/A Thunderstorm Mostly Cloudy
3:14 PM 78.8 °F - 71.6 °F 78% 30.07 in 10.0 mi East 6.9 mph - 0.00 in Rain Light Rain
3:53 PM 81.0 °F 84.4 °F 70.0 °F 69% 30.05 in 10.0 mi ESE 6.9 mph - 0.00 in   Clear
4:53 PM 82.9 °F 87.0 °F 70.0 °F 65% 30.02 in 10.0 mi South 8.1 mph - N/A   Clear
5:53 PM 82.9 °F 87.5 °F 71.1 °F 67% 30.00 in 10.0 mi Variable 3.5 mph - N/A   Clear
6:53 PM 84.9 °F 88.8 °F 69.1 °F 59% 29.99 in 10.0 mi SE 5.8 mph - N/A   Clear
7:53 PM 82.9 °F 87.0 °F 70.0 °F 65% 29.99 in 10.0 mi SSE 4.6 mph - N/A   Clear
8:53 PM 78.1 °F - 72.0 °F 81% 30.01 in 10.0 mi Calm Calm - N/A   Clear
9:53 PM 75.0 °F - 72.0 °F 90% 30.02 in 10.0 mi Calm Calm - N/A   Clear
10:53 PM 75.0 °F - 72.0 °F 90% 30.03 in 10.0 mi Calm Calm - N/A   Clear
11:53 PM 73.0 °F - 71.1 °F 93% 30.03 in 10.0 mi Calm Calm - N/A   Clear